,,,PA_Meas_PMT16A,,PR_Meas_QMR101_102,,RH_Meas_QMH101,,SR_Meas_QMS101,,TA_Meas_QMH101,,GenWind,,GenWind,
date,time,status,PA,status,PR,status,RH,status,SR,status,TA,status,DirAvg,status,SpdAvg,
2010-03-26, 00:00:05,VALID,1008.68,VALID,0,VALID,94.9788,VALID,0,VALID,24.8809,VALID,76,VALID,0,
2010-03-26, 00:01:05,VALID,1008.67,VALID,0,VALID,94.9864,VALID,0,VALID,24.8828,VALID,76,VALID,0,
2010-03-26, 00:02:05,VALID,1008.66,VALID,0,VALID,94.9864,VALID,0,VALID,24.8828,VALID,76,VALID,0,
2010-03-26, 00:03:05,VALID,1008.61,VALID,0,VALID,94.9788,VALID,0,VALID,24.8828,VALID,76,VALID,0,
2010-03-26, 00:04:05,VALID,1008.62,VALID,0,VALID,94.9864,VALID,0,VALID,24.8828,VALID,76,VALID,0,
2010-03-26, 00:05:05,VALID,1008.58,VALID,0,VALID,95.0169,VALID,0,VALID,24.8615,VALID,76,VALID,0,
2010-03-26, 00:06:05,VALID,1008.57,VALID,0,VALID,95.0169,VALID,0,VALID,24.8828,VALID,76,VALID,0,
2010-03-26, 00:07:05,VALID,1008.57,VALID,0,VALID,95.0016,VALID,0,VALID,24.8828,VALID,76,VALID,0,
2010-03-26, 00:08:05,VALID,1008.58,VALID,0,VALID,94.9788,VALID,0,VALID,24.9023,VALID,75,VALID,0,
2010-03-26, 00:09:05,VALID,1008.59,VALID,0,VALID,94.9559,VALID,0,VALID,24.8828,VALID,75,VALID,0,
2010-03-26, 00:10:05,VALID,1008.58,VALID,0,VALID,94.9406,VALID,0,VALID,24.8828,VALID,75,VALID,0,
2010-03-26, 00:11:05,VALID,1008.56,VALID,0,VALID,94.9483,VALID,0,VALID,24.8633,VALID,76,VALID,0,
2010-03-26, 00:12:05,VALID,1008.54,VALID,0,VALID,94.9254,VALID,0,VALID,24.8225,VALID,76,VALID,0,
2010-03-26, 00:13:05,VALID,1008.52,VALID,0,VALID,94.9101,VALID,0,VALID,24.8438,VALID,76,VALID,0,
2010-03-26, 00:14:05,VALID,1008.52,VALID,0,VALID,94.8796,VALID,0,VALID,24.8244,VALID,76,VALID,0,
2010-03-26, 00:15:05,VALID,1008.5,VALID,0,VALID,94.8568,VALID,0,VALID,24.7835,VALID,76,VALID,0,
2010-03-26, 00:16:05,VALID,1008.48,VALID,0,VALID,94.8415,VALID,0,VALID,24.8049,VALID,76,VALID,0,
2010-03-26, 00:17:05,VALID,1008.48,VALID,0,VALID,94.7957,VALID,0,VALID,24.7854,VALID,76,VALID,0,
2010-03-26, 00:18:05,VALID,1008.48,VALID,0,VALID,94.7729,VALID,0,VALID,24.7854,VALID,76,VALID,0,
2010-03-26, 00:19:05,VALID,1008.49,VALID,0,VALID,94.7652,VALID,0,VALID,24.764,VALID,75,VALID,0,
2010-03-26, 00:20:05,VALID,1008.44,VALID,0,VALID,94.7881,VALID,0,VALID,24.7854,VALID,76,VALID,0,
2010-03-26, 00:21:05,VALID,1008.42,VALID,0,VALID,94.8034,VALID,0,VALID,24.7659,VALID,76,VALID,0,
2010-03-26, 00:22:05,VALID,1008.41,VALID,0,VALID,94.6051,VALID,0,VALID,24.7464,VALID,76,VALID,0,
2010-03-26, 00:23:05,VALID,1008.4,VALID,0,VALID,94.5136,VALID,0,VALID,24.7464,VALID,76,VALID,0,
2010-03-26, 00:24:05,VALID,1008.38,VALID,0,VALID,94.3839,VALID,0,VALID,24.7269,VALID,76,VALID,0,
2010-03-26, 00:25:05,VALID,1008.37,VALID,0,VALID,93.1867,VALID,0,VALID,24.7055,VALID,76,VALID,0,
2010-03-26, 00:26:05,VALID,1008.35,VALID,0,VALID,92.3097,VALID,0,VALID,24.7055,VALID,76,VALID,0,
2010-03-26, 00:27:05,VALID,1008.33,VALID,0,VALID,92.1344,VALID,0,VALID,24.7074,VALID,76,VALID,0,
2010-03-26, 00:28:05,VALID,1008.33,VALID,0,VALID,92.02,VALID,0,VALID,24.7074,VALID,76,VALID,0,
2010-03-26, 00:29:05,VALID,1008.3,VALID,0,VALID,92.0428,VALID,0,VALID,24.7074,VALID,76,VALID,0,
2010-03-26, 00:30:05,VALID,1008.3,VALID,0,VALID,91.9285,VALID,0,VALID,24.7074,VALID,76,VALID,0,
2010-03-26, 00:31:05,VALID,1008.31,VALID,0,VALID,91.8675,VALID,0,VALID,24.7074,VALID,76,VALID,0,
2010-03-26, 00:32:05,VALID,1008.29,VALID,0,VALID,91.7073,VALID,0,VALID,24.6879,VALID,76,VALID,0,
2010-03-26, 00:33:05,VALID,1008.27,VALID,0,VALID,91.6234,VALID,0,VALID,24.6684,VALID,75,VALID,0,
2010-03-26, 00:34:05,VALID,1008.27,VALID,0,VALID,91.7759,VALID,0,VALID,24.6684,VALID,76,VALID,0,
2010-03-26, 00:35:05,VALID,1008.27,VALID,0,VALID,91.7149,VALID,0,VALID,24.6489,VALID,75,VALID,0,
2010-03-26, 00:36:05,VALID,1008.28,VALID,0,VALID,91.6997,VALID,0,VALID,24.6489,VALID,76,VALID,0,
2010-03-26, 00:37:05,VALID,1008.29,VALID,0,VALID,91.5167,VALID,0,VALID,24.6489,VALID,75,VALID,0,
2010-03-26, 00:38:05,VALID,1008.27,VALID,0,VALID,91.6921,VALID,0,VALID,24.6294,VALID,75,VALID,0,
2010-03-26, 00:39:05,VALID,1008.24,VALID,0,VALID,91.448,VALID,0,VALID,24.6294,VALID,76,VALID,0,
2010-03-26, 00:40:05,VALID,1008.23,VALID,0,VALID,91.2193,VALID,0,VALID,24.6294,VALID,76,VALID,0,
2010-03-26, 00:41:05,VALID,1008.23,VALID,0,VALID,91.5472,VALID,0.105969,VALID,24.5905,VALID,76,VALID,0,
2010-03-26, 00:42:05,VALID,1008.2,VALID,0,VALID,91.8598,VALID,0,VALID,24.5691,VALID,76,VALID,0,
2010-03-26, 00:43:05,VALID,1008.16,VALID,0,VALID,91.9132,VALID,0,VALID,24.5691,VALID,76,VALID,0,
2010-03-26, 00:44:05,VALID,1008.19,VALID,0,VALID,91.7759,VALID,0,VALID,24.5691,VALID,76,VALID,0,
2010-03-26, 00:45:05,VALID,1008.2,VALID,0,VALID,91.7378,VALID,0,VALID,24.6118,VALID,76,VALID,0,
2010-03-26, 00:46:05,VALID,1008.22,VALID,0,VALID,91.9513,VALID,0,VALID,24.5923,VALID,75,VALID,0,
2010-03-26, 00:47:05,VALID,1008.2,VALID,0,VALID,91.959,VALID,0,VALID,24.5728,VALID,76,VALID,0,
2010-03-26, 00:48:05,VALID,1008.2,VALID,0,VALID,91.8903,VALID,0,VALID,24.5728,VALID,76,VALID,0,
2010-03-26, 00:49:05,VALID,1008.21,VALID,0,VALID,91.7607,VALID,0,VALID,24.5728,VALID,75,VALID,0,
2010-03-26, 00:50:05,VALID,1008.22,VALID,0,VALID,91.9208,VALID,0,VALID,24.532,VALID,76,VALID,0,
2010-03-26, 00:51:05,VALID,1008.23,VALID,0,VALID,91.9818,VALID,0,VALID,24.532,VALID,76,VALID,0,
2010-03-26, 00:52:05,VALID,1008.23,VALID,0,VALID,91.9895,VALID,0,VALID,24.5533,VALID,75,VALID,0,
2010-03-26, 00:53:05,VALID,1008.21,VALID,0,VALID,91.8827,VALID,0,VALID,24.5338,VALID,76,VALID,0,
2010-03-26, 00:54:05,VALID,1008.19,VALID,0,VALID,91.7531,VALID,0,VALID,24.5338,VALID,75,VALID,0,
2010-03-26, 00:55:05,VALID,1008.16,VALID,0,VALID,91.9132,VALID,0,VALID,24.493,VALID,76,VALID,0,
2010-03-26, 00:56:05,VALID,1008.16,VALID,0,VALID,91.9742,VALID,0,VALID,24.5144,VALID,75,VALID,0,
2010-03-26, 00:57:05,VALID,1008.13,VALID,0,VALID,91.9971,VALID,0,VALID,24.5144,VALID,75,VALID,0,
2010-03-26, 00:58:05,VALID,1008.15,VALID,0,VALID,91.9208,VALID,0,VALID,24.5144,VALID,75,VALID,0,
2010-03-26, 00:59:05,VALID,1008.13,VALID,0,VALID,91.7912,VALID,0,VALID,24.454,VALID,75,VALID,0,
2010-03-26, 01:00:05,VALID,1008.15,VALID,0,VALID,91.7454,VALID,0,VALID,24.4735,VALID,76,VALID,0,
2010-03-26, 01:01:05,VALID,1008.11,VALID,0,VALID,91.9971,VALID,0,VALID,24.4327,VALID,75,VALID,0,
2010-03-26, 01:02:05,VALID,1008.1,VALID,0,VALID,91.9895,VALID,0,VALID,24.454,VALID,76,VALID,0,
2010-03-26, 01:03:05,VALID,1008.07,VALID,0,VALID,92.0047,VALID,0.105969,VALID,24.4327,VALID,75,VALID,0,
2010-03-26, 01:04:05,VALID,1008.06,VALID,0,VALID,91.8141,VALID,0,VALID,24.4132,VALID,76,VALID,0,
2010-03-26, 01:05:05,VALID,1008.02,VALID,0,VALID,91.7454,VALID,0.105969,VALID,24.4345,VALID,76,VALID,0,
2010-03-26, 01:06:05,VALID,1008.02,VALID,0,VALID,91.9513,VALID,0,VALID,24.4132,VALID,75,VALID,0,
2010-03-26, 01:07:05,VALID,1007.97,VALID,0,VALID,91.9971,VALID,0,VALID,24.3937,VALID,75,VALID,0,
2010-03-26, 01:08:05,VALID,1007.96,VALID,0,VALID,92.0047,VALID,0,VALID,24.3937,VALID,75,VALID,0,
2010-03-26, 01:09:05,VALID,1007.93,VALID,0,VALID,91.9971,VALID,0.105969,VALID,24.3956,VALID,75,VALID,0,
2010-03-26, 01:10:05,VALID,1007.9,VALID,0,VALID,91.8293,VALID,0.105969,VALID,24.3937,VALID,75,VALID,0,
2010-03-26, 01:11:05,VALID,1007.82,VALID,0,VALID,91.7683,VALID,0,VALID,24.3956,VALID,75,VALID,0,
2010-03-26, 01:12:05,VALID,1007.8,VALID,0,VALID,92.0123,VALID,0.105969,VALID,24.3547,VALID,75,VALID,0,
2010-03-26, 01:13:05,VALID,1007.76,VALID,0,VALID,92.0276,VALID,0,VALID,24.3547,VALID,75,VALID,0,
2010-03-26, 01:14:05,VALID,1007.74,VALID,0,VALID,92.02,VALID,0.105969,VALID,24.3566,VALID,75,VALID,0,
2010-03-26, 01:15:05,VALID,1007.74,VALID,0,VALID,91.9285,VALID,0,VALID,24.3158,VALID,76,VALID,0,
2010-03-26, 01:16:05,VALID,1007.7,VALID,0,VALID,91.8217,VALID,0,VALID,24.3176,VALID,75,VALID,0,
2010-03-26, 01:17:05,VALID,1007.71,VALID,0,VALID,91.8217,VALID,0,VALID,24.2963,VALID,75,VALID,0,
2010-03-26, 01:18:05,VALID,1007.71,VALID,0,VALID,92.0276,VALID,0,VALID,24.2768,VALID,76,VALID,0,
2010-03-26, 01:19:05,VALID,1007.73,VALID,0,VALID,92.02,VALID,0,VALID,24.2573,VALID,75,VALID,0,
2010-03-26, 01:20:05,VALID,1007.73,VALID,0,VALID,92.0123,VALID,0,VALID,24.2573,VALID,75,VALID,0,
2010-03-26, 01:21:05,VALID,1007.73,VALID,0,VALID,91.837,VALID,0.105969,VALID,24.2573,VALID,82,VALID,0.261328,
2010-03-26, 01:22:05,VALID,1007.71,VALID,0,VALID,91.8293,VALID,0.105969,VALID,24.2573,VALID,82,VALID,0,
2010-03-26, 01:23:05,VALID,1007.7,VALID,0,VALID,92.0352,VALID,0.105969,VALID,24.2786,VALID,80,VALID,0,
2010-03-26, 01:24:05,VALID,1007.7,VALID,0,VALID,92.0581,VALID,0.105969,VALID,24.2573,VALID,75,VALID,0,
2010-03-26, 01:25:05,VALID,1007.67,VALID,0,VALID,91.9437,VALID,0.105969,VALID,24.2573,VALID,75,VALID,0,
2010-03-26, 01:26:05,VALID,1007.66,VALID,0,VALID,91.837,VALID,0,VALID,24.2786,VALID,75,VALID,0,
2010-03-26, 01:27:05,VALID,1007.65,VALID,0,VALID,91.9971,VALID,0.105969,VALID,24.2573,VALID,75,VALID,0,
2010-03-26, 01:28:05,VALID,1007.66,VALID,0,VALID,92.0886,VALID,0,VALID,24.2378,VALID,75,VALID,0,
2010-03-26, 01:29:05,VALID,1007.62,VALID,0,VALID,92.081,VALID,0,VALID,24.2573,VALID,75,VALID,0,
2010-03-26, 01:30:05,VALID,1007.62,VALID,0,VALID,92.081,VALID,0,VALID,24.2378,VALID,75,VALID,0,
2010-03-26, 01:31:05,VALID,1007.62,VALID,0,VALID,91.898,VALID,0,VALID,24.2378,VALID,75,VALID,0,
2010-03-26, 01:32:05,VALID,1007.56,VALID,0,VALID,92.02,VALID,0.105969,VALID,24.2378,VALID,75,VALID,0,
2010-03-26, 01:33:05,VALID,1007.52,VALID,0,VALID,92.0733,VALID,0.105969,VALID,24.2396,VALID,75,VALID,0,
2010-03-26, 01:34:05,VALID,1007.51,VALID,0,VALID,92.081,VALID,0,VALID,24.2396,VALID,75,VALID,0,
2010-03-26, 01:35:05,VALID,1007.46,VALID,0,VALID,91.9895,VALID,0.105969,VALID,24.2202,VALID,75,VALID,0,
2010-03-26, 01:36:05,VALID,1007.44,VALID,0,VALID,91.8675,VALID,0,VALID,24.1988,VALID,75,VALID,0,
2010-03-26, 01:37:05,VALID,1007.44,VALID,0,VALID,92.0581,VALID,0.105969,VALID,24.1793,VALID,75,VALID,0,
2010-03-26, 01:38:05,VALID,1007.43,VALID,0,VALID,92.0962,VALID,0.105969,VALID,24.1793,VALID,75,VALID,0,
2010-03-26, 01:39:05,VALID,1007.43,VALID,0,VALID,92.1039,VALID,0,VALID,24.1793,VALID,75,VALID,0,
2010-03-26, 01:40:05,VALID,1007.41,VALID,0,VALID,92.0733,VALID,0,VALID,24.2007,VALID,75,VALID,0,
2010-03-26, 01:41:05,VALID,1007.42,VALID,0,VALID,91.8598,VALID,0,VALID,24.1793,VALID,75,VALID,0,
2010-03-26, 01:42:05,VALID,1007.39,VALID,0,VALID,92.0505,VALID,0.105969,VALID,24.1599,VALID,75,VALID,0,
2010-03-26, 01:43:05,VALID,1007.39,VALID,0,VALID,92.1267,VALID,0.105969,VALID,24.1599,VALID,75,VALID,0,
2010-03-26, 01:44:05,VALID,1007.35,VALID,0,VALID,92.1267,VALID,0,VALID,24.1209,VALID,75,VALID,0,
2010-03-26, 01:45:05,VALID,1007.35,VALID,0,VALID,92.1344,VALID,0,VALID,24.1422,VALID,75,VALID,0,
2010-03-26, 01:46:05,VALID,1007.36,VALID,0,VALID,91.898,VALID,0,VALID,24.1227,VALID,75,VALID,0,
2010-03-26, 01:47:05,VALID,1007.35,VALID,0,VALID,92.0733,VALID,0,VALID,24.1014,VALID,75,VALID,0,
2010-03-26, 01:48:05,VALID,1007.33,VALID,0,VALID,92.142,VALID,0.105969,VALID,24.0819,VALID,75,VALID,0,
2010-03-26, 01:49:05,VALID,1007.31,VALID,0,VALID,92.1344,VALID,0,VALID,24.1014,VALID,75,VALID,0,
2010-03-26, 01:50:05,VALID,1007.29,VALID,0,VALID,92.1344,VALID,0.105969,VALID,24.0819,VALID,75,VALID,0,
2010-03-26, 01:51:05,VALID,1007.25,VALID,0,VALID,91.9208,VALID,0.105969,VALID,24.0819,VALID,75,VALID,0,
2010-03-26, 01:52:05,VALID,1007.28,VALID,0,VALID,91.9056,VALID,0.105969,VALID,24.1032,VALID,75,VALID,0,
2010-03-26, 01:53:05,VALID,1007.27,VALID,0,VALID,92.1267,VALID,0,VALID,24.0819,VALID,75,VALID,0,
2010-03-26, 01:54:04,VALID,1007.26,VALID,0,VALID,92.142,VALID,0.105969,VALID,24.0819,VALID,75,VALID,0,
2010-03-26, 01:55:04,VALID,1007.25,VALID,0,VALID,92.1496,VALID,0,VALID,24.1032,VALID,75,VALID,0,
2010-03-26, 01:56:04,VALID,1007.22,VALID,0,VALID,92.0733,VALID,0.105969,VALID,24.0819,VALID,75,VALID,0,
2010-03-26, 01:57:04,VALID,1007.23,VALID,0,VALID,91.9437,VALID,0,VALID,24.0624,VALID,75,VALID,0,
2010-03-26, 01:58:04,VALID,1007.21,VALID,0,VALID,92.0581,VALID,0,VALID,24.0643,VALID,75,VALID,0,
2010-03-26, 01:59:04,VALID,1007.2,VALID,0,VALID,92.1344,VALID,0.105969,VALID,24.0429,VALID,75,VALID,0,
2010-03-26, 02:00:04,VALID,1007.2,VALID,0,VALID,92.1801,VALID,0,VALID,24.0429,VALID,58,VALID,0,
2010-03-26, 02:01:04,VALID,1007.2,VALID,0,VALID,92.1344,VALID,0,VALID,24.0643,VALID,307,VALID,0,
2010-03-26, 02:02:04,VALID,1007.16,VALID,0,VALID,91.9132,VALID,0.105969,VALID,24.0624,VALID,299,VALID,0,
2010-03-26, 02:03:04,VALID,1007.14,VALID,0,VALID,92.0505,VALID,0,VALID,24.0624,VALID,299,VALID,0,
2010-03-26, 02:04:04,VALID,1007.14,VALID,0,VALID,92.1267,VALID,0.105969,VALID,24.0819,VALID,299,VALID,0,
2010-03-26, 02:05:04,VALID,1007.15,VALID,0,VALID,92.1344,VALID,0,VALID,24.0837,VALID,299,VALID,0,
2010-03-26, 02:06:04,VALID,1007.15,VALID,0,VALID,92.1496,VALID,0.105969,VALID,24.0624,VALID,299,VALID,0,
2010-03-26, 02:07:04,VALID,1007.16,VALID,0,VALID,91.959,VALID,0.105969,VALID,24.0624,VALID,299,VALID,0,
2010-03-26, 02:08:04,VALID,1007.15,VALID,0,VALID,91.898,VALID,0,VALID,24.0624,VALID,299,VALID,0,
2010-03-26, 02:09:04,VALID,1007.13,VALID,0,VALID,92.1115,VALID,0,VALID,24.0448,VALID,299,VALID,0,
2010-03-26, 02:10:04,VALID,1007.13,VALID,0,VALID,92.1801,VALID,0.105969,VALID,24.004,VALID,299,VALID,0,
2010-03-26, 02:11:04,VALID,1007.12,VALID,0,VALID,92.1725,VALID,0.105969,VALID,24.0058,VALID,299,VALID,0,
2010-03-26, 02:12:04,VALID,1007.13,VALID,0,VALID,92.1649,VALID,0,VALID,23.9845,VALID,299,VALID,0,
2010-03-26, 02:13:04,VALID,1007.09,VALID,0,VALID,92.0123,VALID,0.105969,VALID,23.965,VALID,299,VALID,0,
2010-03-26, 02:14:04,VALID,1007.12,VALID,0,VALID,91.9513,VALID,0,VALID,23.9473,VALID,299,VALID,0,
2010-03-26, 02:15:04,VALID,1007.1,VALID,0,VALID,92.1877,VALID,0,VALID,23.9473,VALID,299,VALID,0,
2010-03-26, 02:16:04,VALID,1007.1,VALID,0,VALID,92.1725,VALID,0.105969,VALID,23.9065,VALID,299,VALID,0,
2010-03-26, 02:17:04,VALID,1007.11,VALID,0,VALID,92.1877,VALID,0.105969,VALID,23.9065,VALID,299,VALID,0,
2010-03-26, 02:18:04,VALID,1007.11,VALID,0,VALID,92.0581,VALID,0,VALID,23.8871,VALID,299,VALID,0,
2010-03-26, 02:19:04,VALID,1007.1,VALID,0,VALID,91.9513,VALID,0,VALID,23.8871,VALID,299,VALID,0,
2010-03-26, 02:20:04,VALID,1007.12,VALID,0,VALID,92.1801,VALID,0,VALID,23.8871,VALID,299,VALID,0,
2010-03-26, 02:21:04,VALID,1007.09,VALID,0,VALID,92.1954,VALID,0.105969,VALID,23.8871,VALID,299,VALID,0,
2010-03-26, 02:22:04,VALID,1007.08,VALID,0,VALID,92.0352,VALID,0,VALID,23.8481,VALID,299,VALID,0,
2010-03-26, 02:23:04,VALID,1007.08,VALID,0,VALID,92.0657,VALID,0.105969,VALID,23.8286,VALID,299,VALID,0,
2010-03-26, 02:24:04,VALID,1007.07,VALID,0,VALID,92.2106,VALID,0.105969,VALID,23.8481,VALID,299,VALID,0,
2010-03-26, 02:25:04,VALID,1007.1,VALID,0,VALID,92.1877,VALID,0,VALID,23.8286,VALID,299,VALID,0,
2010-03-26, 02:26:04,VALID,1007.08,VALID,0,VALID,92.0276,VALID,0.105969,VALID,23.8481,VALID,299,VALID,0,
2010-03-26, 02:27:04,VALID,1007.08,VALID,0,VALID,92.0733,VALID,0,VALID,23.8481,VALID,299,VALID,0,
2010-03-26, 02:28:04,VALID,1007.07,VALID,0,VALID,92.1572,VALID,0.105969,VALID,23.8676,VALID,299,VALID,0,
2010-03-26, 02:29:04,VALID,1007.1,VALID,0,VALID,92.1496,VALID,0,VALID,23.8871,VALID,299,VALID,0,
2010-03-26, 02:30:04,VALID,1007.1,VALID,0,VALID,91.8903,VALID,0.105969,VALID,23.8871,VALID,299,VALID,0,
2010-03-26, 02:31:04,VALID,1007.09,VALID,0,VALID,92.1877,VALID,0.105969,VALID,23.8871,VALID,299,VALID,0,
2010-03-26, 02:32:04,VALID,1007.09,VALID,0,VALID,92.2106,VALID,0.105969,VALID,23.8481,VALID,299,VALID,0,
2010-03-26, 02:33:04,VALID,1007.1,VALID,0,VALID,92.1572,VALID,0,VALID,23.8109,VALID,299,VALID,0,
2010-03-26, 02:34:04,VALID,1007.06,VALID,0,VALID,92.02,VALID,0.105969,VALID,23.7507,VALID,299,VALID,0,
2010-03-26, 02:35:04,VALID,1007.06,VALID,0,VALID,92.1877,VALID,0.105969,VALID,23.7525,VALID,299,VALID,0,
2010-03-26, 02:36:04,VALID,1007.05,VALID,0,VALID,92.2182,VALID,0.105969,VALID,23.7507,VALID,299,VALID,0,
2010-03-26, 02:37:04,VALID,1007.06,VALID,0,VALID,92.2182,VALID,0.105969,VALID,23.7312,VALID,299,VALID,0,
2010-03-26, 02:38:04,VALID,1007.01,VALID,0,VALID,92.0733,VALID,0.105969,VALID,23.7312,VALID,299,VALID,0,
2010-03-26, 02:39:04,VALID,1007.01,VALID,0,VALID,91.9818,VALID,0.105969,VALID,23.7117,VALID,299,VALID,0,
2010-03-26, 02:40:04,VALID,1007.01,VALID,0,VALID,92.2487,VALID,0,VALID,23.6922,VALID,299,VALID,0,
2010-03-26, 02:41:04,VALID,1007.03,VALID,0,VALID,92.2335,VALID,0.105969,VALID,23.6922,VALID,299,VALID,0,
2010-03-26, 02:42:04,VALID,1007.01,VALID,0,VALID,92.1954,VALID,0.105969,VALID,23.7117,VALID,299,VALID,0,
2010-03-26, 02:43:04,VALID,1006.98,VALID,0,VALID,91.9513,VALID,0.105969,VALID,23.7507,VALID,299,VALID,0,
2010-03-26, 02:44:04,VALID,1007,VALID,0,VALID,92.1572,VALID,0,VALID,23.7701,VALID,299,VALID,0,
2010-03-26, 02:45:04,VALID,1006.98,VALID,0,VALID,92.142,VALID,0,VALID,23.772,VALID,299,VALID,0,
2010-03-26, 02:46:04,VALID,1006.96,VALID,0,VALID,92.142,VALID,0,VALID,23.772,VALID,299,VALID,0,
2010-03-26, 02:47:04,VALID,1006.95,VALID,0,VALID,91.9132,VALID,0,VALID,23.772,VALID,299,VALID,0,
2010-03-26, 02:48:04,VALID,1006.97,VALID,0,VALID,92.1496,VALID,0,VALID,23.7914,VALID,299,VALID,0,
2010-03-26, 02:49:04,VALID,1006.95,VALID,0,VALID,92.142,VALID,0,VALID,23.7914,VALID,299,VALID,0,
2010-03-26, 02:50:04,VALID,1006.96,VALID,0,VALID,91.9208,VALID,0,VALID,23.772,VALID,299,VALID,0,
2010-03-26, 02:51:04,VALID,1006.99,VALID,0,VALID,92.1344,VALID,0,VALID,23.7914,VALID,299,VALID,0,
2010-03-26, 02:52:04,VALID,1006.99,VALID,0,VALID,92.1267,VALID,0,VALID,23.7914,VALID,299,VALID,0,
2010-03-26, 02:53:04,VALID,1006.96,VALID,0,VALID,92.081,VALID,0,VALID,23.772,VALID,299,VALID,0,
2010-03-26, 02:54:04,VALID,1006.94,VALID,0,VALID,91.8827,VALID,0,VALID,23.7738,VALID,299,VALID,0,
2010-03-26, 02:55:04,VALID,1006.96,VALID,0,VALID,92.1267,VALID,0,VALID,23.7525,VALID,299,VALID,0,
2010-03-26, 02:56:04,VALID,1006.95,VALID,0,VALID,92.1115,VALID,0,VALID,23.7525,VALID,299,VALID,0,
2010-03-26, 02:57:04,VALID,1006.93,VALID,0,VALID,92.1115,VALID,0,VALID,23.7135,VALID,299,VALID,0,
2010-03-26, 02:58:04,VALID,1006.92,VALID,0,VALID,91.9208,VALID,0,VALID,23.694,VALID,299,VALID,0,
2010-03-26, 02:59:04,VALID,1006.93,VALID,0,VALID,92.1572,VALID,0,VALID,23.694,VALID,299,VALID,0,
2010-03-26, 03:00:04,VALID,1006.93,VALID,0,VALID,92.142,VALID,0,VALID,23.7117,VALID,299,VALID,0,
2010-03-26, 03:01:04,VALID,1006.95,VALID,0,VALID,92.0428,VALID,0,VALID,23.6922,VALID,299,VALID,0,
2010-03-26, 03:02:04,VALID,1006.94,VALID,0,VALID,91.8903,VALID,0,VALID,23.6922,VALID,299,VALID,0,
2010-03-26, 03:03:04,VALID,1006.95,VALID,0,VALID,92.1191,VALID,0.105969,VALID,23.7135,VALID,299,VALID,0,
2010-03-26, 03:04:04,VALID,1006.93,VALID,0,VALID,92.1344,VALID,0.105969,VALID,23.6727,VALID,299,VALID,0,
2010-03-26, 03:05:04,VALID,1006.94,VALID,0,VALID,92.0428,VALID,0,VALID,23.6532,VALID,299,VALID,0,
2010-03-26, 03:06:04,VALID,1006.92,VALID,0,VALID,91.898,VALID,0,VALID,23.694,VALID,299,VALID,0,
2010-03-26, 03:07:04,VALID,1006.91,VALID,0,VALID,92.081,VALID,0,VALID,23.6922,VALID,299,VALID,0,
2010-03-26, 03:08:04,VALID,1006.91,VALID,0,VALID,92.1039,VALID,0,VALID,23.6532,VALID,299,VALID,0,
2010-03-26, 03:09:04,VALID,1006.89,VALID,0,VALID,92.0123,VALID,0,VALID,23.6356,VALID,299,VALID,0,
2010-03-26, 03:10:04,VALID,1006.88,VALID,0,VALID,91.9818,VALID,0,VALID,23.5558,VALID,299,VALID,0,
2010-03-26, 03:11:04,VALID,1006.87,VALID,0,VALID,92.2487,VALID,0,VALID,23.4974,VALID,299,VALID,0,
2010-03-26, 03:12:04,VALID,1006.85,VALID,0,VALID,92.2716,VALID,0.105969,VALID,23.4584,VALID,299,VALID,0,
2010-03-26, 03:13:04,VALID,1006.84,VALID,0,VALID,92.1267,VALID,0.105969,VALID,23.4389,VALID,299,VALID,0,
2010-03-26, 03:14:04,VALID,1006.83,VALID,0,VALID,92.0886,VALID,0,VALID,23.4,VALID,299,VALID,0,
2010-03-26, 03:15:04,VALID,1006.82,VALID,0,VALID,92.264,VALID,0.105969,VALID,23.4017,VALID,299,VALID,0,
2010-03-26, 03:16:04,VALID,1006.83,VALID,0,VALID,92.2792,VALID,0,VALID,23.361,VALID,299,VALID,0,
2010-03-26, 03:17:04,VALID,1006.81,VALID,0,VALID,92.1115,VALID,0,VALID,23.3805,VALID,299,VALID,0,
2010-03-26, 03:18:04,VALID,1006.82,VALID,0,VALID,92.1344,VALID,0,VALID,23.4,VALID,299,VALID,0,
2010-03-26, 03:19:04,VALID,1006.78,VALID,0,VALID,92.2182,VALID,0.105969,VALID,23.4,VALID,299,VALID,0,
2010-03-26, 03:20:04,VALID,1006.77,VALID,0,VALID,92.1801,VALID,0,VALID,23.4194,VALID,299,VALID,0,
2010-03-26, 03:21:04,VALID,1006.77,VALID,0,VALID,91.9437,VALID,0,VALID,23.4584,VALID,299,VALID,0,
2010-03-26, 03:22:04,VALID,1006.73,VALID,0,VALID,92.1267,VALID,0,VALID,23.4974,VALID,299,VALID,0,
2010-03-26, 03:23:04,VALID,1006.74,VALID,0,VALID,92.1039,VALID,0,VALID,23.5169,VALID,299,VALID,0,
2010-03-26, 03:24:04,VALID,1006.75,VALID,0,VALID,91.898,VALID,0,VALID,23.5381,VALID,299,VALID,0,
2010-03-26, 03:25:04,VALID,1006.72,VALID,0,VALID,92.0962,VALID,0,VALID,23.5363,VALID,299,VALID,0,
2010-03-26, 03:26:04,VALID,1006.72,VALID,0,VALID,92.0657,VALID,0,VALID,23.5771,VALID,299,VALID,0,
2010-03-26, 03:27:04,VALID,1006.72,VALID,0,VALID,91.9666,VALID,0,VALID,23.5948,VALID,299,VALID,0,
2010-03-26, 03:28:04,VALID,1006.73,VALID,0,VALID,92.0733,VALID,0,VALID,23.6143,VALID,299,VALID,0,
2010-03-26, 03:29:04,VALID,1006.74,VALID,0,VALID,91.9285,VALID,0,VALID,23.6356,VALID,299,VALID,0,
2010-03-26, 03:30:04,VALID,1006.75,VALID,0,VALID,92.0047,VALID,0,VALID,23.6356,VALID,299,VALID,0,
2010-03-26, 03:31:04,VALID,1006.73,VALID,0,VALID,92.1039,VALID,0,VALID,23.5948,VALID,299,VALID,0,
2010-03-26, 03:32:04,VALID,1006.76,VALID,0,VALID,92.1191,VALID,0.105969,VALID,23.5558,VALID,299,VALID,0,
2010-03-26, 03:33:04,VALID,1006.79,VALID,0,VALID,91.9818,VALID,0,VALID,23.5558,VALID,299,VALID,0,
2010-03-26, 03:34:04,VALID,1006.77,VALID,0,VALID,92.0657,VALID,0.105969,VALID,23.5169,VALID,299,VALID,0,
2010-03-26, 03:35:04,VALID,1006.8,VALID,0,VALID,92.1649,VALID,0.105969,VALID,23.4974,VALID,299,VALID,0,
2010-03-26, 03:36:04,VALID,1006.83,VALID,0,VALID,92.1572,VALID,0.105969,VALID,23.4974,VALID,299,VALID,0,
2010-03-26, 03:37:04,VALID,1006.84,VALID,0,VALID,91.959,VALID,0,VALID,23.4992,VALID,299,VALID,0,
2010-03-26, 03:38:04,VALID,1006.87,VALID,0,VALID,92.1191,VALID,0.105969,VALID,23.4779,VALID,299,VALID,0,
2010-03-26, 03:39:04,VALID,1006.88,VALID,0,VALID,92.1725,VALID,0.105969,VALID,23.4779,VALID,299,VALID,0,
2010-03-26, 03:40:04,VALID,1006.92,VALID,0,VALID,92.02,VALID,0.105969,VALID,23.4584,VALID,299,VALID,0,
2010-03-26, 03:41:04,VALID,1006.94,VALID,0,VALID,91.9818,VALID,0.105969,VALID,23.4584,VALID,299,VALID,0,
2010-03-26, 03:42:04,VALID,1006.94,VALID,0,VALID,92.1649,VALID,0,VALID,23.4389,VALID,299,VALID,0,
2010-03-26, 03:43:04,VALID,1006.93,VALID,0,VALID,92.1649,VALID,0,VALID,23.4212,VALID,299,VALID,0,
2010-03-26, 03:44:04,VALID,1006.95,VALID,0,VALID,92.0657,VALID,0,VALID,23.3805,VALID,299,VALID,0,
2010-03-26, 03:45:04,VALID,1006.95,VALID,0,VALID,91.9666,VALID,0,VALID,23.4017,VALID,299,VALID,0,
2010-03-26, 03:46:04,VALID,1006.96,VALID,0,VALID,92.1954,VALID,0.105969,VALID,23.3823,VALID,299,VALID,0,
2010-03-26, 03:47:04,VALID,1006.95,VALID,0,VALID,92.1191,VALID,0,VALID,23.3628,VALID,299,VALID,0,
2010-03-26, 03:48:04,VALID,1006.95,VALID,0,VALID,91.9513,VALID,0.105969,VALID,23.3628,VALID,299,VALID,0,
2010-03-26, 03:49:04,VALID,1006.96,VALID,0,VALID,92.1496,VALID,0,VALID,23.3433,VALID,299,VALID,0,
2010-03-26, 03:50:04,VALID,1006.96,VALID,0,VALID,92.2106,VALID,0.105969,VALID,23.3026,VALID,299,VALID,0,
2010-03-26, 03:51:04,VALID,1006.95,VALID,0,VALID,92.1115,VALID,0.105969,VALID,23.2636,VALID,299,VALID,0,
2010-03-26, 03:52:04,VALID,1006.97,VALID,0,VALID,92.0657,VALID,0,VALID,23.2246,VALID,299,VALID,0,
2010-03-26, 03:53:04,VALID,1006.97,VALID,0,VALID,92.2716,VALID,0.105969,VALID,23.2051,VALID,299,VALID,0,
2010-03-26, 03:54:04,VALID,1006.98,VALID,0,VALID,92.2716,VALID,0,VALID,23.1857,VALID,299,VALID,0,
2010-03-26, 03:55:04,VALID,1006.97,VALID,0,VALID,92.1267,VALID,0.105969,VALID,23.2051,VALID,299,VALID,0,
2010-03-26, 03:56:04,VALID,1006.96,VALID,0,VALID,92.203,VALID,0.105969,VALID,23.1857,VALID,299,VALID,0,